[[{"header":{"parameterUnit":"m.s-1","parameterCategory":1,"la1":30.2991,"la2":30.254,"lo1":-89.0895,"lo2":-89.0444,"dy":0.0017,"dx":0.0017,"nx":28,"ny":28,"refTime":"2024-12-09T03:00:00:Z","depth":0,"parameterNumber":2,"parameterNumberName":"U-component_of_WINDS"},"data":[0,0,0,0,0,0,0,0,0,0,0,0,0,0,0,0,0,0,0,0,0,0,0,0,0,0,0,0,0,0,0,0,0,0,0,0,0,0,0,0,0,0,0,0,0,0,0,0,0,0,0,0,0,0,0,0,0,0,1.425,1.4251,0,1.4281,1.4281,1.4282,1.4259,1.4258,1.4257,1.4256,1.4289,1.4291,1.4292,0,0,0,0,0,0,0,0,0,0,0,0,0,1.4173,1.4174,1.425,1.4251,1.4251,1.4281,1.4281,1.4282,1.426,1.4258,1.4257,1.4256,1.4288,1.429,1.4292,0,0,0,0,0,0,0,0,0,0,0,0,0,1.4205,1.4175,1.425,1.4243,1.4243,1.4281,1.4281,1.4282,1.426,1.4258,1.4257,1.4255,1.4288,1.429,1.4293,1.4339,0,0,1.4301,1.4302,0,0,0,0,0,0,0,0,1.4203,1.4208,1.4244,1.4244,1.4244,1.4265,1.4266,1.4301,1.426,1.4254,1.4256,1.4255,1.4282,1.4285,1.4294,1.434,1.4342,1.4301,1.4303,1.4304,1.4305,0,0,0,0,0,0,0,1.4201,1.4207,1.4262,1.4245,1.4244,1.4239,1.4242,1.4272,1.4276,1.4254,1.4252,1.4256,1.4282,1.4292,1.4295,1.4342,1.4301,1.4303,1.4305,1.4306,1.4428,1.4429,0,0,0,0,0,0,1.42,1.4205,1.4261,1.4263,1.422,1.4242,1.4245,1.426,1.4275,1.4276,1.4258,1.4255,1.4288,1.4292,1.4296,1.4351,1.4304,1.4306,1.4308,1.4426,1.4428,1.443,0,0,0,0,0,0,1.4198,1.4205,1.426,1.4234,1.424,1.4245,1.4261,1.4261,1.4271,1.4278,1.4279,1.4267,1.4287,1.4292,1.4328,1.4352,1.4308,1.431,1.4424,1.4427,1.4429,1.4462,0,0,0,0,0,0,1.4196,1.4204,1.4222,1.4234,1.4242,1.4292,1.4263,1.4263,1.4275,1.4273,1.4287,1.4288,1.4286,1.4324,1.4331,1.4355,1.4312,1.4422,1.4425,1.4428,1.4459,1.4465,1.4471,0,0,0,0,0,1.4193,1.423,1.4223,1.423,1.4264,1.4293,1.4298,1.4294,1.4277,1.4295,1.43,1.4288,1.4348,1.4328,1.4335,1.436,1.4421,1.4425,1.4428,1.4456,1.4464,1.447,0,0,0,0,0,0,1.422,1.4231,1.4224,1.4265,1.4279,1.429,1.4312,1.4303,1.4321,1.4318,1.4313,1.4317,1.4355,1.4361,1.4339,1.4406,1.4382,1.4387,1.44,1.4408,1.4414,1.4412,1.4314,0,0,0,0,0,1.4231,1.4254,1.4263,1.4299,1.4306,1.4308,1.432,1.4317,1.433,1.4336,1.4343,1.4357,1.4379,1.4394,1.4414,1.4459,1.4462,1.448,1.4486,1.4491,1.4496,1.452,1.4528,1.4442,1.4442,1.4442,0,0,1.4254,1.4262,1.4277,1.4304,1.4314,1.4338,1.4313,1.4339,1.4357,1.434,1.4375,1.4381,1.4396,1.4436,1.4455,1.4443,1.452,1.4495,1.4499,1.4501,1.4525,1.4533,1.454,1.4445,1.4444,1.4444,0,0,1.4307,1.4316,1.4347,1.4358,1.4373,1.4374,1.4381,1.4394,1.4397,1.4432,1.4419,1.4441,1.4479,1.449,1.4501,1.4559,1.4549,1.4566,1.4597,1.4621,1.4628,1.4634,1.4655,1.4662,1.457,1.457,1.457,0,1.4334,1.4369,1.4365,1.4392,1.4405,1.439,1.4422,1.4432,1.4453,1.4462,1.4448,1.4496,1.4505,1.4548,1.4562,1.4571,1.458,1.4564,1.4627,1.4633,1.4638,1.4659,1.4666,1.4572,1.4572,1.4572,1.4572,0,1.4401,1.4426,1.445,1.4471,1.4485,1.4515,1.4515,1.4531,1.4525,1.4528,1.4564,1.4574,1.4597,1.4606,1.4602,1.4649,1.4642,1.4628,1.4603,1.4649,1.4668,1.4675,1.4575,1.4574,1.4574,1.4573,0,0,1.4473,1.4491,1.45,1.4509,1.4525,1.4544,1.4573,1.4595,1.4609,1.4624,1.4648,1.4681,1.4668,1.468,1.4676,1.4697,1.4743,1.468,1.4681,1.4692,1.4796,1.4807,1.4816,1.4736,1.4737,1.4738,1.4795,0,1.4528,1.4579,1.4575,1.4623,1.4646,1.4632,1.4658,1.467,1.4673,1.4694,1.4697,1.472,1.4701,1.4708,1.4728,1.4733,1.4764,1.4729,1.4759,1.476,1.4756,1.4826,1.4838,1.4891,1.4802,1.4804,1.4805,0,1.4599,1.4616,1.4667,1.4679,1.4689,1.4711,1.4731,1.4751,1.4765,1.4765,1.4779,1.4772,1.4801,1.4776,1.4816,1.4793,1.4805,1.4809,1.4811,1.4814,1.4786,1.4832,1.4908,1.4916,1.4816,1.4815,1.4814,0,1.4647,1.4683,1.4718,1.4726,1.4741,1.4758,1.4765,1.4777,1.4791,1.4808,1.4817,1.4837,1.4849,1.4865,1.4864,1.4845,1.4905,1.4879,1.4907,1.4907,1.4921,1.492,1.5,1.4927,1.4927,1.4927,1.4927,0,1.4709,1.474,1.474,1.4761,1.4796,1.4792,1.4826,1.4831,1.4842,1.4865,1.4854,1.4875,1.4871,1.4893,1.4892,1.4926,1.4931,1.4932,1.4932,1.4934,1.4934,1.4942,1.4939,1.4929,1.4929,1.4928,1.4928,0,1.4769,1.477,1.4807,1.4818,1.4821,1.4847,1.4856,1.4877,1.4879,1.4907,1.4914,1.4917,1.4941,1.4941,1.4969,1.4968,1.501,1.5005,1.5006,1.5005,1.5033,1.503,1.5122,1.5134,1.5053,1.5053,1.5054,0,1.4809,1.4832,1.4846,1.486,1.4869,1.4892,1.4905,1.4902,1.4917,1.4934,1.4953,1.4976,1.4994,1.5034,1.5039,1.506,1.5056,1.5087,1.5059,1.506,1.5057,1.5056,1.5058,1.5092,1.5093,1.5094,1.5094,0,1.4879,1.4878,1.4899,1.4919,1.4936,1.4952,1.4967,1.4979,1.4977,1.4995,1.5019,1.5034,1.5062,1.5086,1.5106,1.5113,1.5104,1.5103,1.511,1.5113,1.5112,1.5114,1.5021,1.5101,1.51,1.51,1.5099,1.5099,1.493,1.4951,1.4964,1.4987,1.4998,1.5012,1.5032,1.5037,1.5057,1.508,1.5077,1.5105,1.5118,1.5144,1.5153,1.5175,1.5164,1.5175,1.5178,1.5181,1.5184,1.5108,1.5179,1.5179,1.5178,1.5178,1.5178,0,1.5001,1.5009,1.503,1.5051,1.5069,1.5059,1.5074,1.509,1.5115,1.5128,1.5147,1.5175,1.5198,1.5205,1.5226,1.5243,1.5239,1.5249,1.5248,1.5249,1.5192,1.5184,1.5251,1.5251,1.5251,1.5251,1.5251,1.5251,1.504,1.5074,1.5075,1.5115,1.5123,1.515,1.516,1.5173,1.5184,1.5216,1.5235,1.5239,1.525,1.5272,1.5293,1.5294,1.5303,1.5314,1.5314,1.5261,1.5253,1.5246,1.5238,1.5316,1.5316,1.5369,1.537,1.537]},{"header":{"parameterUnit":"m.s-1","parameterCategory":1,"la1":30.2991,"la2":30.254,"lo1":-89.0895,"lo2":-89.0444,"dy":0.0017,"dx":0.0017,"nx":28,"ny":28,"refTime":"2024-12-09T03:00:00:Z","depth":0,"parameterNumber":3,"parameterNumberName":"V-component_of_WINDS"},"data":[0,0,0,0,0,0,0,0,0,0,0,0,0,0,0,0,0,0,0,0,0,0,0,0,0,0,0,0,0,0,0,0,0,0,0,0,0,0,0,0,0,0,0,0,0,0,0,0,0,0,0,0,0,0,0,0,0,0,4.5736,4.5738,0,4.59,4.5902,4.5903,4.592,4.5919,4.5917,4.5915,4.6083,4.6088,4.6094,0,0,0,0,0,0,0,0,0,0,0,0,0,4.5438,4.5444,4.5736,4.5738,4.574,4.5899,4.5902,4.5904,4.5921,4.5919,4.5917,4.5915,4.6081,4.6088,4.6095,0,0,0,0,0,0,0,0,0,0,0,0,0,4.5581,4.5446,4.5735,4.5768,4.5772,4.5899,4.5902,4.5904,4.5921,4.5919,4.5916,4.5914,4.6078,4.6087,4.6096,4.6202,0,0,4.6123,4.6127,0,0,0,0,0,0,0,0,4.5573,4.5592,4.5761,4.5766,4.5771,4.5887,4.5858,4.6004,4.5922,4.5864,4.5915,4.5912,4.602,4.6033,4.6069,4.621,4.6217,4.6124,4.613,4.6134,4.6136,0,0,0,0,0,0,0,4.5563,4.5585,4.5801,4.5763,4.5769,4.5774,4.5792,4.5886,4.5954,4.5869,4.5871,4.589,4.6022,4.6061,4.6073,4.6219,4.6124,4.6132,4.6138,4.6141,4.6458,4.6461,0,0,0,0,0,0,4.5547,4.5577,4.5795,4.5806,4.5664,4.5781,4.5801,4.5852,4.5953,4.5966,4.5892,4.589,4.6047,4.6063,4.6079,4.6213,4.6134,4.6142,4.6147,4.6455,4.6459,4.6462,0,0,0,0,0,0,4.5541,4.5567,4.5789,4.5692,4.572,4.5789,4.5847,4.5857,4.5896,4.597,4.5983,4.5919,4.6045,4.6067,4.6172,4.6219,4.6146,4.6154,4.6451,4.6456,4.646,4.6478,0,0,0,0,0,0,4.5532,4.5564,4.5605,4.5693,4.5726,4.5879,4.5849,4.5862,4.5911,4.5911,4.5999,4.6011,4.6045,4.6159,4.6181,4.623,4.6161,4.6448,4.6453,4.6459,4.6474,4.6483,4.6491,0,0,0,0,0,4.5522,4.5603,4.5607,4.5633,4.5778,4.5881,4.59,4.5937,4.5915,4.5957,4.6005,4.6009,4.6209,4.6169,4.6195,4.6247,4.6445,4.6452,4.6458,4.647,4.6481,4.649,0,0,0,0,0,0,4.5518,4.5615,4.5621,4.5732,4.5799,4.5884,4.5938,4.5947,4.6021,4.6017,4.6059,4.6079,4.6184,4.6225,4.6179,4.6356,4.6325,4.6337,4.6325,4.6336,4.6344,4.6333,4.6169,0,0,0,0,0,4.5531,4.5606,4.5687,4.5778,4.5811,4.5869,4.5915,4.5938,4.6008,4.6036,4.6092,4.616,4.6238,4.6289,4.6365,4.6479,4.65,4.6528,4.6536,4.6543,4.6553,4.6619,4.6633,4.6484,4.6484,4.6484,0,0,4.5557,4.5619,4.5664,4.5779,4.5833,4.5911,4.5892,4.5975,4.6034,4.6048,4.6152,4.6195,4.6274,4.6385,4.6436,4.6423,4.6599,4.6551,4.6556,4.6563,4.6628,4.6642,4.6654,4.6489,4.6488,4.6487,0,0,4.5645,4.5699,4.5782,4.5837,4.5919,4.5958,4.5977,4.6062,4.6092,4.6196,4.621,4.628,4.6414,4.647,4.6517,4.6628,4.6635,4.6651,4.6696,4.676,4.6771,4.6782,4.6824,4.6839,4.6661,4.6661,4.6661,0,4.5668,4.5786,4.5824,4.5908,4.5958,4.5976,4.6061,4.6112,4.6215,4.625,4.6233,4.6403,4.6457,4.6583,4.661,4.6646,4.6671,4.6642,4.6767,4.6778,4.6788,4.6829,4.6845,4.6663,4.6663,4.6663,4.6662,0,4.5811,4.5893,4.595,4.6051,4.6108,4.6191,4.6242,4.6295,4.6313,4.6354,4.6461,4.6526,4.6618,4.6649,4.6666,4.6778,4.6767,4.6758,4.6728,4.6804,4.6843,4.6859,4.6665,4.6665,4.6664,4.6664,0,0,4.5903,4.6023,4.6044,4.6091,4.6183,4.6248,4.6333,4.6423,4.6469,4.6539,4.6613,4.6726,4.6719,4.6771,4.6796,4.6851,4.6939,4.6836,4.6838,4.6855,4.7068,4.7077,4.7094,4.6943,4.6946,4.6948,4.7063,0,4.6004,4.6157,4.6193,4.6325,4.6402,4.642,4.6495,4.656,4.66,4.6672,4.6715,4.6796,4.6779,4.6812,4.6867,4.6916,4.6983,4.6908,4.7014,4.7017,4.6996,4.7114,4.7123,4.7227,4.7078,4.708,4.7082,0,4.6142,4.6217,4.6356,4.6441,4.6475,4.6541,4.6628,4.6696,4.677,4.6796,4.6855,4.6874,4.6964,4.6928,4.7054,4.7003,4.7048,4.7079,4.7084,4.7097,4.7056,4.7133,4.7261,4.7278,4.7106,4.7104,4.7103,0,4.6198,4.6334,4.6435,4.6474,4.6575,4.6622,4.6666,4.6738,4.679,4.6865,4.69,4.6984,4.7031,4.7096,4.7138,4.7107,4.7262,4.7228,4.7287,4.7286,4.732,4.7318,4.746,4.7345,4.7344,4.7344,4.7344,0,4.6309,4.6394,4.6462,4.6525,4.6622,4.6663,4.6757,4.6802,4.6866,4.6938,4.6958,4.7025,4.7075,4.715,4.7183,4.7284,4.7304,4.7328,4.7336,4.7328,4.7325,4.736,4.7355,4.7348,4.7347,4.7347,4.7346,0,4.6389,4.6438,4.655,4.6637,4.666,4.6728,4.6802,4.6864,4.6905,4.6996,4.702,4.7083,4.7172,4.722,4.7331,4.7353,4.7467,4.747,4.7443,4.7447,4.7503,4.7498,4.7675,4.7702,4.7566,4.7567,4.7568,0,4.6457,4.6524,4.6618,4.6668,4.6713,4.6793,4.6848,4.6891,4.6946,4.7037,4.7089,4.7179,4.7254,4.7395,4.7452,4.7537,4.7544,4.76,4.7557,4.7547,4.7548,4.7545,4.7553,4.7608,4.7609,4.761,4.7611,0,4.6575,4.6596,4.6674,4.676,4.6824,4.6894,4.6963,4.7003,4.7058,4.712,4.7211,4.7269,4.7383,4.7474,4.7564,4.7609,4.7621,4.7624,4.7642,4.7636,4.7619,4.7632,4.7466,4.762,4.7619,4.7619,4.7618,4.7618,4.6654,4.6714,4.6791,4.6877,4.6934,4.6998,4.7062,4.7111,4.7188,4.7285,4.7306,4.7403,4.7478,4.76,4.7648,4.7726,4.7715,4.7741,4.7748,4.7755,4.7759,4.7604,4.7742,4.7742,4.7741,4.7741,4.7741,0,4.6775,4.6825,4.6904,4.7001,4.7069,4.7073,4.715,4.7207,4.7293,4.7362,4.7435,4.7542,4.7629,4.7693,4.7783,4.7833,4.784,4.7855,4.7853,4.7864,4.7762,4.7738,4.7848,4.7848,4.7848,4.7847,4.7847,4.7847,4.6846,4.695,4.6981,4.7114,4.7163,4.726,4.7304,4.7364,4.742,4.7538,4.7612,4.7652,4.772,4.7815,4.7896,4.7912,4.7946,4.7961,4.7978,4.7882,4.7871,4.786,4.7838,4.7967,4.7967,4.8074,4.8075,4.8076]}]]